When you browse on this site, cookies collect data to enhance your experience and personalize the content and advertising you see.
Visit our Privacy Policy to learn more. By continuing to use the site, you agree to this use of cookies and data.
  • In Hungary
  • List of Countries
  • For 7 days
  • Water Temperature
  • Satellite Maps
  • Weather Map
  • News
  • Weather Widgets
  • user-avatar
    Login

    Hourly Weather Mount Lebanon

    Today, 20 July, Saturday

    Time Temperature Precipitation Wind Pressure Humidity
    00:00 +26°C° 1.5 mm 1 mps 730 mmHg 89%
    01:00 +26°C° 1.5 mm 1 mps 730 mmHg 91%
    02:00 +25°C° 0 mm 1 mps 729 mmHg 92%
    03:00 +25°C° 0 mm 1 mps 729 mmHg 93%
    04:00 +25°C° 0 mm 1 mps 729 mmHg 94%
    05:00 +25°C° 0 mm 2 mps 729 mmHg 93%
    06:00 +26°C° 0 mm 2 mps 730 mmHg 93%
    07:00 +26°C° 0 mm 3 mps 730 mmHg 92%
    08:00 +28°C° 0.2 mm 3 mps 730 mmHg 86%
    09:00 +29°C° 0.2 mm 3 mps 730 mmHg 81%
    10:00 +31°C° 0.2 mm 3 mps 730 mmHg 75%
    11:00 +33°C° 0 mm 4 mps 730 mmHg 70%
    12:00 +34°C° 0 mm 4 mps 730 mmHg 65%
    13:00 +35°C° 0 mm 4 mps 730 mmHg 60%
    14:00 +35°C° 0 mm 4 mps 729 mmHg 59%
    15:00 +35°C° 0 mm 4 mps 729 mmHg 58%
    16:00 +35°C° 0 mm 4 mps 729 mmHg 57%
    17:00 +34°C° 0 mm 3 mps 729 mmHg 61%
    18:00 +33°C° 0 mm 3 mps 729 mmHg 66%
    19:00 +30°C° 0 mm 3 mps 729 mmHg 70%
    20:00 +29°C° 0.1 mm 2 mps 729 mmHg 75%
    21:00 +28°C° 0.1 mm 2 mps 729 mmHg 80%
    22:00 +27°C° 0.1 mm 2 mps 729 mmHg 85%
    23:00 +27°C° 0 mm 2 mps 729 mmHg 87%

    Tomorrow, 21 July, Sunday

    Time Temperature Precipitation Wind Pressure Humidity
    00:00 +27°C° 0 mm 2 mps 729 mmHg 90%
    01:00 +26°C° 0 mm 2 mps 729 mmHg 92%
    02:00 +26°C° 0 mm 2 mps 728 mmHg 93%
    03:00 +26°C° 0 mm 2 mps 728 mmHg 94%
    04:00 +26°C° 0 mm 2 mps 728 mmHg 94%
    05:00 +26°C° 0.2 mm 2 mps 729 mmHg 94%
    06:00 +26°C° 0.2 mm 2 mps 729 mmHg 93%
    07:00 +27°C° 0.2 mm 2 mps 729 mmHg 93%
    08:00 +28°C° 0.5 mm 2 mps 729 mmHg 87%
    09:00 +29°C° 0.5 mm 3 mps 729 mmHg 81%
    10:00 +31°C° 0.5 mm 3 mps 729 mmHg 76%
    11:00 +33°C° 0.2 mm 3 mps 729 mmHg 70%
    12:00 +34°C° 0.2 mm 3 mps 729 mmHg 65%
    13:00 +35°C° 0.2 mm 4 mps 729 mmHg 59%
    14:00 +34°C° 0.9 mm 3 mps 729 mmHg 61%
    15:00 +34°C° 0.9 mm 3 mps 729 mmHg 64%
    16:00 +34°C° 0.9 mm 3 mps 728 mmHg 66%
    17:00 +31°C° 0.8 mm 2 mps 728 mmHg 71%
    18:00 +30°C° 0.8 mm 2 mps 729 mmHg 75%
    19:00 +29°C° 0.8 mm 2 mps 729 mmHg 80%
    20:00 +28°C° 0 mm 2 mps 728 mmHg 83%
    21:00 +27°C° 0 mm 1 mps 728 mmHg 85%
    22:00 +26°C° 0 mm 1 mps 728 mmHg 88%
    23:00 +25°C° 0 mm 1 mps 728 mmHg 88%

    Day after tomorrow, 22 July, Monday

    Time Temperature Precipitation Wind Pressure Humidity
    00:00 +25°C° 0 mm 1 mps 728 mmHg 88%
    01:00 +25°C° 0 mm 1 mps 728 mmHg 89%
    02:00 +24°C° 1.8 mm 1 mps 728 mmHg 90%
    03:00 +24°C° 1.8 mm 1 mps 727 mmHg 92%
    04:00 +23°C° 1.8 mm 1 mps 727 mmHg 94%
    05:00 +23°C° 1.2 mm 1 mps 727 mmHg 94%
    06:00 +23°C° 1.2 mm 1 mps 727 mmHg 94%
    07:00 +23°C° 1.2 mm 1 mps 727 mmHg 93%
    08:00 +25°C° 0.2 mm 2 mps 727 mmHg 90%
    09:00 +26°C° 0.2 mm 3 mps 727 mmHg 87%
    10:00 +27°C° 0.2 mm 3 mps 727 mmHg 84%
    11:00 +27°C° 1.1 mm 4 mps 727 mmHg 85%
    12:00 +27°C° 1.1 mm 4 mps 727 mmHg 85%
    13:00 +27°C° 1.1 mm 4 mps 727 mmHg 86%
    14:00 +26°C° 1.6 mm 4 mps 727 mmHg 88%
    15:00 +23°C° 1.6 mm 4 mps 726 mmHg 90%
    16:00 +22°C° 1.6 mm 3 mps 726 mmHg 93%
    17:00 +21°C° 1.1 mm 3 mps 726 mmHg 92%
    18:00 +20°C° 1.1 mm 3 mps 726 mmHg 92%
    19:00 +19°C° 1.1 mm 3 mps 726 mmHg 92%
    20:00 +18°C° 0.8 mm 3 mps 726 mmHg 92%
    21:00 +18°C° 0.8 mm 3 mps 726 mmHg 91%
    22:00 +18°C° 0.8 mm 3 mps 726 mmHg 91%
    23:00 +18°C° 0.6 mm 3 mps 726 mmHg 91%

    23 July, Tuesday

    Time Temperature Precipitation Wind Pressure Humidity
    00:00 +17°C° 0.6 mm 3 mps 726 mmHg 92%
    01:00 +17°C° 0.6 mm 3 mps 726 mmHg 92%
    02:00 +17°C° 0.4 mm 2 mps 726 mmHg 91%
    03:00 +17°C° 0.4 mm 2 mps 726 mmHg 89%
    04:00 +18°C° 0.4 mm 1 mps 726 mmHg 88%
    05:00 +17°C° 0 mm 2 mps 727 mmHg 88%
    06:00 +17°C° 0 mm 2 mps 727 mmHg 87%
    07:00 +17°C° 0 mm 2 mps 728 mmHg 86%
    08:00 +19°C° 0 mm 2 mps 728 mmHg 76%
    09:00 +21°C° 0 mm 2 mps 729 mmHg 65%
    10:00 +22°C° 0 mm 3 mps 729 mmHg 54%
    11:00 +24°C° 0 mm 3 mps 729 mmHg 52%
    12:00 +25°C° 0 mm 3 mps 729 mmHg 50%
    13:00 +26°C° 0 mm 3 mps 729 mmHg 49%
    14:00 +26°C° 0 mm 3 mps 729 mmHg 50%
    15:00 +26°C° 0 mm 4 mps 729 mmHg 52%
    16:00 +26°C° 0 mm 4 mps 729 mmHg 53%
    17:00 +23°C° 0 mm 4 mps 729 mmHg 59%
    18:00 +22°C° 0 mm 3 mps 729 mmHg 64%
    19:00 +20°C° 0 mm 3 mps 729 mmHg 70%
    20:00 +19°C° 0 mm 3 mps 729 mmHg 73%
    21:00 +17°C° 0 mm 2 mps 730 mmHg 76%
    22:00 +15°C° 0 mm 2 mps 730 mmHg 79%
    23:00 +15°C° 0 mm 2 mps 730 mmHg 81%

    24 July, Wednesday

    Time Temperature Precipitation Wind Pressure Humidity
    00:00 +14°C° 0 mm 1 mps 730 mmHg 82%
    01:00 +13°C° 0 mm 1 mps 730 mmHg 83%
    02:00 +13°C° 0 mm 1 mps 730 mmHg 83%
    03:00 +13°C° 0 mm 1 mps 730 mmHg 83%
    04:00 +13°C° 0 mm 1 mps 730 mmHg 83%
    05:00 +13°C° 0 mm 1 mps 730 mmHg 81%
    06:00 +14°C° 0 mm 1 mps 731 mmHg 78%
    07:00 +15°C° 0 mm 1 mps 731 mmHg 76%
    08:00 +18°C° 0 mm 1 mps 731 mmHg 70%
    09:00 +20°C° 0 mm 2 mps 731 mmHg 63%
    10:00 +23°C° 0 mm 2 mps 732 mmHg 57%
    11:00 +24°C° 0.1 mm 2 mps 731 mmHg 57%
    12:00 +24°C° 0.1 mm 3 mps 731 mmHg 58%
    13:00 +25°C° 0.1 mm 3 mps 731 mmHg 58%
    14:00 +25°C° 0.3 mm 3 mps 731 mmHg 59%
    15:00 +25°C° 0.3 mm 3 mps 730 mmHg 61%
    16:00 +25°C° 0.3 mm 3 mps 730 mmHg 62%
    17:00 +24°C° 0.1 mm 3 mps 730 mmHg 67%
    18:00 +23°C° 0.1 mm 2 mps 730 mmHg 72%
    19:00 +21°C° 0.1 mm 2 mps 730 mmHg 78%
    20:00 +20°C° 0 mm 2 mps 731 mmHg 81%
    21:00 +19°C° 0 mm 2 mps 731 mmHg 84%
    22:00 +18°C° 0 mm 2 mps 731 mmHg 88%
    23:00 +18°C° 0 mm 2 mps 731 mmHg 89%

    25 July, Thursday

    Time Temperature Precipitation Wind Pressure Humidity
    00:00 +17°C° 0 mm 2 mps 731 mmHg 90%
    01:00 +17°C° 0 mm 2 mps 731 mmHg 92%
    02:00 +16°C° 0 mm 1 mps 731 mmHg 92%
    03:00 +16°C° 0 mm 1 mps 732 mmHg 92%
    04:00 +15°C° 0 mm 1 mps 732 mmHg 92%
    05:00 +16°C° 0 mm 1 mps 732 mmHg 89%
    06:00 +16°C° 0 mm 1 mps 733 mmHg 86%
    07:00 +18°C° 0 mm 1 mps 733 mmHg 83%
    08:00 +19°C° 0 mm 1 mps 734 mmHg 73%
    09:00 +21°C° 0 mm 1 mps 734 mmHg 63%
    10:00 +23°C° 0 mm 1 mps 735 mmHg 54%
    11:00 +24°C° 0 mm 1 mps 735 mmHg 51%
    12:00 +25°C° 0 mm 2 mps 735 mmHg 48%
    13:00 +26°C° 0 mm 2 mps 735 mmHg 45%
    14:00 +26°C° 0 mm 2 mps 735 mmHg 45%
    15:00 +27°C° 0 mm 2 mps 734 mmHg 46%
    16:00 +27°C° 0 mm 2 mps 734 mmHg 46%
    17:00 +25°C° 0 mm 1 mps 734 mmHg 54%
    18:00 +24°C° 0 mm 1 mps 735 mmHg 62%
    19:00 +22°C° 0 mm 1 mps 735 mmHg 69%
    20:00 +21°C° 0 mm 1 mps 735 mmHg 72%
    21:00 +20°C° 0 mm 1 mps 735 mmHg 75%
    22:00 +18°C° 0 mm 1 mps 736 mmHg 77%
    23:00 +18°C° 0 mm 1 mps 736 mmHg 79%
    Show more